DESBT EDDH-EDDV

Flight info

Callsign DESBT
Flight time 0h 39m
Altitude 5000
Route IDEKO7G/33 IDEKO N850 NIE
Aircraft PA24/L-SDGRY/S

Departure

Time 2026-04-21 19:49
Airport Hamburg Helmut Schmidt Airport (EDDH)

Arrival

Time 2026-04-21 20:28
Airport Hannover Airport (EDDV)
Time Latitude Longitude Altitude Speed Heading
2026-04-21 19:30 53.62698 9.98731 41 ft 0 kts 62°
2026-04-21 19:47 53.62701 9.98732 14 ft 3 kts 337°
2026-04-21 19:47 53.62692 9.98685 41 ft 7 kts 246°
2026-04-21 19:47 53.62728 9.98642 41 ft 13 kts 12°
2026-04-21 19:47 53.62811 9.98796 41 ft 20 kts 50°
2026-04-21 19:48 53.62898 9.98974 41 ft 19 kts 50°
2026-04-21 19:48 53.62975 9.99132 41 ft 16 kts 50°
2026-04-21 19:48 53.63049 9.99261 41 ft 15 kts 33°
2026-04-21 19:48 53.63150 9.99322 41 ft 21 kts 13°
2026-04-21 19:49 53.63330 9.99345 41 ft 36 kts 339°
2026-04-21 19:49 53.63711 9.99014 123 ft 82 kts 334°
2026-04-21 19:49 53.64287 9.98517 373 ft 103 kts 335°
2026-04-21 19:49 53.64848 9.98032 707 ft 107 kts 336°
2026-04-21 19:50 53.65150 9.97768 912 ft 105 kts 337°
2026-04-21 19:50 53.65796 9.97177 1372 ft 109 kts 339°
2026-04-21 19:50 53.66446 9.96593 1865 ft 107 kts 339°
2026-04-21 19:50 53.66982 9.96157 2625 ft 72 kts 341°
2026-04-21 19:51 53.67442 9.95771 3021 ft 74 kts 340°
2026-04-21 19:51 53.67998 9.95325 3282 ft 104 kts 342°
2026-04-21 19:51 53.68703 9.94742 3618 ft 121 kts 340°
2026-04-21 19:51 53.69464 9.94091 3944 ft 123 kts 339°
2026-04-21 19:52 53.70274 9.93403 4048 ft 140 kts 340°
2026-04-21 19:52 53.71135 9.92634 4266 ft 139 kts 332°
2026-04-21 19:52 53.71686 9.91306 4512 ft 143 kts 287°
2026-04-21 19:52 53.71583 9.89656 4767 ft 143 kts 250°
2026-04-21 19:53 53.71239 9.88123 5018 ft 143 kts 250°
2026-04-21 19:53 53.70890 9.86448 5032 ft 157 kts 251°
2026-04-21 19:53 53.70531 9.84648 5034 ft 164 kts 251°
2026-04-21 19:53 53.70168 9.82805 5019 ft 168 kts 251°
2026-04-21 19:54 53.69790 9.80902 5022 ft 169 kts 251°
2026-04-21 19:54 53.69389 9.79043 5021 ft 168 kts 241°
2026-04-21 19:54 53.68576 9.77704 5025 ft 164 kts 203°
2026-04-21 19:54 53.67497 9.77371 5026 ft 155 kts 175°
2026-04-21 19:55 53.66416 9.77173 5017 ft 159 kts 184°
2026-04-21 19:55 53.65317 9.76801 5019 ft 158 kts 187°
2026-04-21 19:55 53.64264 9.76404 5025 ft 157 kts 187°
2026-04-21 19:55 53.63191 9.75998 5019 ft 156 kts 187°
2026-04-21 19:56 53.62149 9.75604 5022 ft 155 kts 187°
2026-04-21 19:56 53.61094 9.75204 5019 ft 155 kts 187°
2026-04-21 19:56 53.60044 9.74808 5023 ft 154 kts 187°
2026-04-21 19:56 53.58998 9.74412 5018 ft 154 kts 187°
2026-04-21 19:57 53.57957 9.74020 5019 ft 153 kts 187°
2026-04-21 19:57 53.56915 9.73627 5026 ft 154 kts 187°
2026-04-21 19:57 53.55873 9.73233 5017 ft 154 kts 187°
2026-04-21 19:57 53.54825 9.72839 5022 ft 154 kts 187°
2026-04-21 19:58 53.53777 9.72444 5024 ft 154 kts 187°
2026-04-21 19:58 53.52727 9.72048 5016 ft 155 kts 187°
2026-04-21 19:58 53.51675 9.71653 5025 ft 155 kts 187°
2026-04-21 19:58 53.50626 9.71256 5024 ft 154 kts 187°
2026-04-21 19:59 53.49580 9.70863 5023 ft 154 kts 187°
2026-04-21 19:59 53.48531 9.70470 5028 ft 156 kts 187°
2026-04-21 19:59 53.47472 9.70075 5021 ft 156 kts 187°
2026-04-21 19:59 53.46409 9.69672 5036 ft 157 kts 187°
2026-04-21 20:00 53.45342 9.69272 5021 ft 156 kts 187°
2026-04-21 20:00 53.44285 9.68874 5028 ft 155 kts 187°
2026-04-21 20:00 53.43229 9.68478 5019 ft 155 kts 187°
2026-04-21 20:00 53.42168 9.68082 5020 ft 156 kts 187°
2026-04-21 20:01 53.41104 9.67684 5016 ft 157 kts 187°
2026-04-21 20:01 53.40037 9.67284 5018 ft 159 kts 187°
2026-04-21 20:01 53.38970 9.66885 5011 ft 158 kts 187°
2026-04-21 20:01 53.37914 9.66488 5011 ft 154 kts 187°
2026-04-21 20:02 53.36860 9.66096 5016 ft 155 kts 187°
2026-04-21 20:02 53.35778 9.65695 5013 ft 165 kts 187°
2026-04-21 20:02 53.34648 9.65273 5015 ft 167 kts 187°
2026-04-21 20:02 53.33510 9.64846 5013 ft 169 kts 187°
2026-04-21 20:03 53.32356 9.64415 5007 ft 170 kts 188°
2026-04-21 20:03 53.31210 9.63987 5012 ft 169 kts 187°
2026-04-21 20:03 53.30064 9.63561 5020 ft 170 kts 188°
2026-04-21 20:03 53.28896 9.63127 5011 ft 173 kts 188°
2026-04-21 20:04 53.27732 9.62692 5001 ft 170 kts 188°
2026-04-21 20:04 53.26581 9.62263 5000 ft 169 kts 188°
2026-04-21 20:04 53.25442 9.61840 5021 ft 167 kts 188°
2026-04-21 20:04 53.24303 9.61417 5016 ft 168 kts 188°
2026-04-21 20:05 53.23163 9.60994 5012 ft 168 kts 188°
2026-04-21 20:05 53.22024 9.60571 5014 ft 168 kts 188°
2026-04-21 20:05 53.20886 9.60149 5011 ft 168 kts 188°
2026-04-21 20:05 53.19749 9.59727 5011 ft 167 kts 188°
2026-04-21 20:06 53.18610 9.59306 5006 ft 168 kts 188°
2026-04-21 20:06 53.17486 9.58888 5008 ft 162 kts 188°
2026-04-21 20:06 53.16386 9.58481 5008 ft 161 kts 188°
2026-04-21 20:06 53.15290 9.58076 5015 ft 161 kts 188°
2026-04-21 20:07 53.14197 9.57672 5008 ft 161 kts 188°
2026-04-21 20:07 53.13106 9.57269 5003 ft 161 kts 188°
2026-04-21 20:07 53.12012 9.56866 5011 ft 161 kts 188°
2026-04-21 20:07 53.10922 9.56463 5003 ft 161 kts 188°
2026-04-21 20:08 53.09830 9.56060 5003 ft 161 kts 188°
2026-04-21 20:08 53.08737 9.55657 5004 ft 161 kts 188°
2026-04-21 20:08 53.07644 9.55254 5001 ft 161 kts 188°
2026-04-21 20:08 53.06550 9.54851 5000 ft 161 kts 188°
2026-04-21 20:09 53.05457 9.54448 5002 ft 161 kts 188°
2026-04-21 20:09 53.04363 9.54046 5002 ft 161 kts 188°
2026-04-21 20:09 53.03271 9.53644 5000 ft 161 kts 188°
2026-04-21 20:09 53.02178 9.53242 4999 ft 161 kts 188°
2026-04-21 20:10 53.01084 9.52840 5011 ft 161 kts 188°
2026-04-21 20:10 52.99991 9.52439 4998 ft 161 kts 188°
2026-04-21 20:10 52.98901 9.52039 5004 ft 161 kts 188°
2026-04-21 20:10 52.97809 9.51638 5003 ft 160 kts 188°
2026-04-21 20:11 52.96718 9.51238 5000 ft 160 kts 188°
2026-04-21 20:11 52.95644 9.50844 5001 ft 160 kts 188°
2026-04-21 20:11 52.94556 9.50446 5008 ft 160 kts 188°
2026-04-21 20:11 52.93467 9.50047 4995 ft 160 kts 188°
2026-04-21 20:12 52.92381 9.49650 5001 ft 160 kts 188°
2026-04-21 20:12 52.91296 9.49253 4998 ft 160 kts 188°
2026-04-21 20:12 52.90210 9.48856 5002 ft 159 kts 188°
2026-04-21 20:12 52.89126 9.48460 4998 ft 160 kts 188°
2026-04-21 20:13 52.88042 9.48064 5000 ft 159 kts 188°
2026-04-21 20:13 52.86960 9.47669 5000 ft 159 kts 188°
2026-04-21 20:13 52.85879 9.47275 4996 ft 159 kts 188°
2026-04-21 20:13 52.84797 9.46880 5001 ft 159 kts 188°
2026-04-21 20:14 52.83715 9.46486 5000 ft 159 kts 188°
2026-04-21 20:14 52.82635 9.46092 5000 ft 159 kts 188°
2026-04-21 20:14 52.81554 9.45699 5001 ft 159 kts 188°
2026-04-21 20:14 52.80471 9.45305 4999 ft 159 kts 188°
2026-04-21 20:15 52.79389 9.44911 5003 ft 159 kts 188°
2026-04-21 20:15 52.78307 9.44518 5005 ft 159 kts 188°
2026-04-21 20:15 52.77227 9.44126 4994 ft 159 kts 188°
2026-04-21 20:15 52.76144 9.43732 4993 ft 159 kts 188°
2026-04-21 20:16 52.75063 9.43340 5002 ft 159 kts 188°
2026-04-21 20:16 52.73988 9.42949 5014 ft 158 kts 188°
2026-04-21 20:16 52.72914 9.42561 5014 ft 158 kts 188°
2026-04-21 20:16 52.71837 9.42170 5016 ft 159 kts 188°
2026-04-21 20:17 52.70759 9.41780 5014 ft 158 kts 188°
2026-04-21 20:17 52.69681 9.41390 5015 ft 159 kts 188°
2026-04-21 20:17 52.68603 9.41000 5017 ft 159 kts 188°
2026-04-21 20:17 52.67524 9.40609 5013 ft 159 kts 188°
2026-04-21 20:18 52.66811 9.40351 5014 ft 158 kts 188°
2026-04-21 20:18 52.65385 9.39836 5018 ft 158 kts 188°
2026-04-21 20:18 52.64294 9.39442 5019 ft 158 kts 188°
2026-04-21 20:18 52.63218 9.39054 5016 ft 158 kts 188°
2026-04-21 20:19 52.62143 9.38666 5017 ft 158 kts 188°
2026-04-21 20:19 52.61070 9.38279 5017 ft 158 kts 188°
2026-04-21 20:19 52.60202 9.37966 5019 ft 158 kts 188°
2026-04-21 20:19 52.59128 9.37579 5020 ft 158 kts 188°
2026-04-21 20:20 52.58053 9.37192 5015 ft 158 kts 188°
2026-04-21 20:20 52.56981 9.36806 5018 ft 158 kts 188°
2026-04-21 20:20 52.55908 9.36421 5018 ft 158 kts 188°
2026-04-21 20:20 52.54835 9.36039 4958 ft 161 kts 188°
2026-04-21 20:21 52.53746 9.35667 4687 ft 156 kts 187°
2026-04-21 20:21 52.52706 9.35306 4418 ft 151 kts 187°
2026-04-21 20:21 52.51687 9.34962 4144 ft 149 kts 187°
2026-04-21 20:21 52.50676 9.34598 3891 ft 149 kts 188°
2026-04-21 20:22 52.49669 9.34291 3623 ft 144 kts 175°
2026-04-21 20:22 52.48277 9.36228 3091 ft 134 kts 123°
2026-04-21 20:22 52.47722 9.37399 3026 ft 124 kts 123°
2026-04-21 20:23 52.47184 9.38528 3024 ft 130 kts 123°
2026-04-21 20:23 52.46616 9.39731 3033 ft 136 kts 123°
2026-04-21 20:23 52.46038 9.40967 3037 ft 134 kts 123°
2026-04-21 20:23 52.45939 9.42429 3016 ft 131 kts 81°
2026-04-21 20:24 52.45968 9.43894 3118 ft 130 kts 91°
2026-04-21 20:24 52.45935 9.45395 3137 ft 132 kts 91°
2026-04-21 20:24 52.45920 9.46900 3168 ft 133 kts 89°
2026-04-21 20:24 52.45924 9.48434 3088 ft 132 kts 89°
2026-04-21 20:25 52.45926 9.49949 2892 ft 137 kts 89°
2026-04-21 20:25 52.45947 9.51500 2737 ft 133 kts 89°
2026-04-21 20:25 52.45919 9.52943 2336 ft 121 kts 91°
2026-04-21 20:25 52.45849 9.54205 2120 ft 98 kts 93°
2026-04-21 20:26 52.45792 9.55421 1994 ft 116 kts 91°
2026-04-21 20:26 52.45763 9.56799 1858 ft 126 kts 89°
2026-04-21 20:26 52.45733 9.58256 1658 ft 128 kts 89°
2026-04-21 20:26 52.45702 9.59666 1538 ft 127 kts 90°
2026-04-21 20:27 52.45664 9.61162 1338 ft 136 kts 89°
2026-04-21 20:27 52.45627 9.62731 1088 ft 138 kts 90°
2026-04-21 20:27 52.45594 9.64165 777 ft 114 kts 91°
2026-04-21 20:27 52.45557 9.65403 625 ft 109 kts 91°
2026-04-21 20:28 52.45524 9.66587 385 ft 92 kts 89°
2026-04-21 20:28 52.45499 9.67575 222 ft 89 kts 89°
2026-04-21 20:28 52.45477 9.68491 177 ft 65 kts 91°
2026-04-21 20:28 52.45462 9.69026 182 ft 21 kts 93°
2026-04-21 20:29 52.45526 9.69135 180 ft 15 kts
2026-04-21 20:29 52.45598 9.69144 178 ft 8 kts 358°
2026-04-21 20:29 52.45705 9.69148 175 ft 18 kts
2026-04-21 20:29 52.45829 9.69155 173 ft 18 kts 352°
2026-04-21 20:30 52.45901 9.69092 172 ft 18 kts 324°
2026-04-21 20:30 52.45999 9.68972 171 ft 18 kts 323°
2026-04-21 20:30 52.46097 9.68853 173 ft 17 kts 318°
2026-04-21 20:30 52.46186 9.68743 174 ft 15 kts 340°
2026-04-21 20:31 52.46263 9.68821 175 ft 14 kts 64°
2026-04-21 20:31 52.46304 9.68985 176 ft 20 kts 69°
2026-04-21 20:31 52.46352 9.69195 177 ft 15 kts 68°
2026-04-21 20:31 52.46324 9.69287 176 ft 11 kts 163°
2026-04-21 20:32 52.46287 9.69281 176 ft 5 kts 251°
2026-04-21 20:32 52.46309 9.69244 176 ft 4 kts 353°
2026-04-21 20:32 52.46307 9.69269 176 ft 4 kts 150°
2026-04-21 20:32 52.46306 9.69271 176 ft 0 kts 151°